Regional Weather Roundup
Issued by NWS

Home | Current Version | Previous Version | Text Only | Print | Product List | Glossary Off
Versions: 1 2 3 4 5 6 7 8 9 10 11 12 13 14 15 16 17 18 19 20 21 22 23 24 25 26 27 28 29 30 31 32 33 34 35 36 37 38 39 40 41

000
ASUS45 KBOI 210410
RWRID
WEATHER ROUNDUP FOR IDAHO
NATIONAL WEATHER SERVICE BOISE ID
1000 PM MDT MON OCT 20 2014

NOTE: "FAIR" INDICATES FEW OR NO CLOUDS BELOW 12000 FEET
WITH NO SIGNIFICANT WEATHER AND/OR OBSTRUCTIONS TO VISIBILITY

IDZ012-014-210500-
SOUTHWEST IDAHO


CITY           SKY/WX    TMP DP  RH WIND       PRES   REMARKS
BOISE          MOCLDY    63  39  41 CALM      29.69F
CALDWELL       MOCLDY    59  39  47 S6        29.69F
MOUNTAIN HOME  CLOUDY    66  38  36 N5        29.69S
$$

IDZ016-017-210500-
SOUTHCENTRAL IDAHO


CITY           SKY/WX    TMP DP  RH WIND       PRES   REMARKS
BURLEY         PTCLDY    66  35  31 S14       29.80F
JEROME         MOCLDY    63  34  33 E12       29.77F
TWIN FALLS     MOCLDY    71  33  24 SE21G30   29.76F
$$

IDZ019>023-210500-
SOUTHEAST IDAHO


CITY           SKY/WX    TMP DP  RH WIND       PRES   REMARKS
IDAHO FALLS    CLEAR     49  36  61 CALM      29.90F
POCATELLO      CLEAR     67  35  30 S14       29.86F
REXBURG        CLEAR     59  33  37 S6        29.90F
$$

IDZ006-010-011-018-031-032-210500-
CENTRAL IDAHO MOUNTAINS


CITY           SKY/WX    TMP DP  RH WIND       PRES   REMARKS
MCCALL         MOCLDY    50  34  54 NW6       29.78F
HAILEY         MOCLDY    57  39  51 SE7       29.89S
STANLEY          N/A     52  35  52 S6        29.90F
SALMON         CLEAR     50  36  57 CALM      29.76F
CHALLIS        CLOUDY    56  33  42 NW3       29.83S
$$

IDZ002-004-006-007-026-210500-
NORTHERN IDAHO


CITY           SKY/WX    TMP DP  RH WIND       PRES   REMARKS
LEWISTON       MOCLDY    61  48  62 NW15G24   29.79R HAZE
LOWELL           N/A     52  50  93 CALM      29.75R
COEUR D`ALENE  CLOUDY    55  46  71 W12       29.75R
MULLAN PASS    PTCLDY    45  36  70 NW7       29.83S
$$


USA.gov is the U.S. government's official web portal to all federal, state and local government web resources and services.